Location: Quaker Farms
(41.4276°N, 73.1557°W)
Time: 23:20:35
(UTC+00:00)

Vanguard 1 - Pass Details

Date: 16 June 2021
Orbit: 651 x 3832 km, 34.2° (Epoch: 26 July)

Event Time Altitude Azimuth Distance (km) Brightness Sun altitude
Rises 08:00:21 0° 278° (W) 6,544 13.9 -12.1°
Reaches altitude 10° 08:05:43 10° 272° (W) 4,990 13.3 -11.4°
Maximum altitude 08:16:56 38° 211° (SSW) 2,185 11.3 -9.9°
Drops below altitude 10° 08:23:31 10° 145° (SE) 2,914 12.4 -9.0°
Sets 08:25:50 0° 136° (SE) 3,613 13.0 -8.7°
